RS29S (SXC3-2110 CYCLO*)

Last updated on Wed Jul 12 2023 00:03:08 GMT+0000 (Coordinated Universal Time)

1 53373U 22096D 23192.44376812 .00029079 00000+0 71812-3 0 9990 2 53373 97.4109 99.0411 0003577 97.1423 263.0230 15.40457677 51429
UTC large
Height (km)
Speed (km/s)
/
Latitude / Longitude
Inclination (degrees)
Orbital Period (minutes)
Azimuth
Elevation
Range (km)
Doppler Factor

Next 0 passes for location: London (51.5072 / 0.1276)

Sorry there are no passes over London.